| time (UTC) | temp F | wind direction | speed knots | gust knots | rain 1hr in | rain 24hr in | rain mn in | humidity % | barometer mb |
| 20260508013516 | 46 | 248 | 10.4 | 13.0 | 0.00 | 0.01 | 0.00 | 87 | 1011.5 |
| 20260508013016 | 47 | 248 | 11.3 | 13.9 | 0.00 | 0.01 | 0.00 | 86 | 1011.5 |
| 20260508012516 | 47 | 248 | 11.3 | 16.5 | 0.00 | 0.01 | 0.00 | 85 | 1011.5 |
| 20260508012016 | 47 | 248 | 13.0 | 15.6 | 0.00 | 0.01 | 0.00 | 85 | 1011.5 |
| 20260508011536 | 47 | 248 | 13.0 | 17.4 | 0.00 | 0.01 | 0.00 | 85 | 1011.4 |
| 20260508011016 | 48 | 248 | 12.2 | 15.6 | 0.00 | 0.01 | 0.00 | 84 | 1011.4 |
| 20260508010516 | 48 | 248 | 11.3 | 13.9 | 0.00 | 0.01 | 0.00 | 82 | 1011.5 |
| 20260508010036 | 48 | 248 | 10.4 | 13.9 | 0.00 | 0.01 | 0.00 | 82 | 1011.5 |
| 20260508005516 | 48 | 248 | 8.7 | 13.0 | 0.00 | 0.01 | 0.00 | 82 | 1011.6 |
| 20260508005016 | 48 | 225 | 7.8 | 11.3 | 0.00 | 0.01 | 0.00 | 82 | 1011.6 |
| 20260508004516 | 48 | 225 | 7.8 | 11.3 | 0.00 | 0.01 | 0.00 | 82 | 1011.6 |
| 20260508004016 | 48 | 225 | 6.1 | 9.6 | 0.00 | 0.01 | 0.00 | 82 | 1011.6 |
| 20260508003536 | 48 | 248 | 7.8 | 12.2 | 0.00 | 0.01 | 0.00 | 82 | 1011.6 |
| 20260508003036 | 48 | 225 | 7.0 | 9.6 | 0.00 | 0.01 | 0.00 | 82 | 1011.6 |
| 20260508002516 | 48 | 225 | 8.7 | 11.3 | 0.00 | 0.01 | 0.00 | 82 | 1011.6 |
| 20260508002016 | 48 | 248 | 9.6 | 12.2 | 0.00 | 0.01 | 0.00 | 81 | 1011.5 |
| 20260508001516 | 48 | 248 | 8.7 | 12.2 | 0.00 | 0.01 | 0.00 | 82 | 1011.5 |
| 20260508001016 | 48 | 248 | 7.0 | 10.4 | 0.00 | 0.01 | 0.00 | 82 | 1011.6 |
| 20260508000516 | 48 | 248 | 5.2 | 9.6 | 0.00 | 0.01 | 0.00 | 82 | 1011.6 |
| 20260508000016 | 48 | 248 | 5.2 | 7.8 | 0.00 | 0.01 | 0.01 | 82 | 1011.5 |
| 20260507235516 | 48 | 248 | 6.1 | 8.7 | 0.00 | 0.01 | 0.01 | 82 | 1011.5 |
| 20260507235037 | 48 | 248 | 7.0 | 9.6 | 0.00 | 0.01 | 0.01 | 82 | 1011.5 |
| 20260507234536 | 48 | 248 | 6.1 | 7.8 | 0.00 | 0.01 | 0.01 | 82 | 1011.5 |
| 20260507234016 | 48 | 248 | 9.6 | 12.2 | 0.00 | 0.01 | 0.01 | 81 | 1011.5 |
| 20260507233516 | 48 | 248 | 8.7 | 12.2 | 0.00 | 0.01 | 0.01 | 82 | 1011.5 |
| 20260507233016 | 48 | 248 | 8.7 | 11.3 | 0.00 | 0.01 | 0.01 | 82 | 1011.5 |
| 20260507232516 | 48 | 248 | 9.6 | 12.2 | 0.00 | 0.01 | 0.01 | 81 | 1011.5 |
| 20260507232016 | 48 | 225 | 7.8 | 11.3 | 0.00 | 0.01 | 0.01 | 81 | 1011.5 |
| 20260507231516 | 49 | 248 | 7.8 | 12.2 | 0.00 | 0.01 | 0.01 | 81 | 1011.4 |
| 20260507231016 | 49 | 225 | 9.6 | 13.0 | 0.00 | 0.01 | 0.01 | 81 | 1011.5 |
| 20260507230517 | 49 | 248 | 7.8 | 11.3 | 0.00 | 0.01 | 0.01 | 81 | 1011.5 |
| 20260507230016 | 49 | 248 | 8.7 | 13.0 | 0.00 | 0.01 | 0.01 | 81 | 1011.5 |
| 20260507225516 | 49 | 248 | 8.7 | 15.6 | 0.00 | 0.01 | 0.01 | 81 | 1011.4 |
| 20260507225036 | 49 | 225 | 7.8 | 11.3 | 0.00 | 0.01 | 0.01 | 81 | 1011.5 |
| 20260507224537 | 49 | 248 | 7.8 | 10.4 | 0.00 | 0.01 | 0.01 | 81 | 1011.5 |
| 20260507224016 | 49 | 225 | 7.0 | 9.6 | 0.00 | 0.01 | 0.01 | 81 | 1011.5 |
| 20260507223536 | 49 | 225 | 6.1 | 8.7 | 0.00 | 0.01 | 0.01 | 81 | 1011.5 |
| 20260507223016 | 49 | 225 | 7.0 | 10.4 | 0.00 | 0.01 | 0.01 | 81 | 1011.5 |
| 20260507222516 | 49 | 225 | 6.1 | 8.7 | 0.00 | 0.01 | 0.01 | 81 | 1011.5 |
| 20260507222016 | 49 | 248 | 5.2 | 7.8 | 0.00 | 0.01 | 0.01 | 81 | 1011.4 |
| 20260507221516 | 49 | 248 | 5.2 | 7.0 | 0.00 | 0.01 | 0.01 | 81 | 1011.5 |
| 20260507221017 | 49 | 248 | 4.3 | 6.1 | 0.00 | 0.01 | 0.01 | 81 | 1011.5 |
| 20260507220516 | 49 | 248 | 5.2 | 7.0 | 0.00 | 0.01 | 0.01 | 80 | 1011.6 |
| 20260507220016 | 49 | 248 | 5.2 | 7.0 | 0.00 | 0.01 | 0.01 | 80 | 1011.5 |
| 20260507215516 | 49 | 248 | 6.1 | 7.0 | 0.00 | 0.01 | 0.01 | 79 | 1011.5 |
| 20260507215016 | 49 | 248 | 7.0 | 8.7 | 0.00 | 0.01 | 0.01 | 79 | 1011.5 |
| 20260507214536 | 49 | 248 | 7.0 | 9.6 | 0.00 | 0.01 | 0.01 | 78 | 1011.5 |
| 20260507214016 | 49 | 248 | 7.8 | 9.6 | 0.00 | 0.01 | 0.01 | 78 | 1011.5 |
| 20260507213516 | 49 | 248 | 7.8 | 9.6 | 0.00 | 0.01 | 0.01 | 77 | 1011.4 |
| 20260507213016 | 49 | 248 | 7.8 | 9.6 | 0.00 | 0.01 | 0.01 | 76 | 1011.4 |
| 20260507212536 | 49 | 248 | 5.2 | 7.8 | 0.00 | 0.01 | 0.01 | 76 | 1011.5 |
| 20260507212016 | 49 | 225 | 5.2 | 6.1 | 0.00 | 0.01 | 0.01 | 75 | 1011.4 |
| 20260507211516 | 49 | 225 | 6.1 | 7.8 | 0.00 | 0.01 | 0.01 | 74 | 1011.5 |
| 20260507211016 | 50 | 225 | 7.0 | 9.6 | 0.00 | 0.01 | 0.01 | 72 | 1011.4 |
| 20260507210516 | 50 | 203 | 7.8 | 10.4 | 0.00 | 0.01 | 0.01 | 71 | 1011.3 |
| 20260507210016 | 50 | 203 | 7.8 | 11.3 | 0.00 | 0.01 | 0.01 | 71 | 1011.4 |
| 20260507205516 | 50 | 203 | 7.8 | 10.4 | 0.00 | 0.01 | 0.01 | 71 | 1011.3 |
| 20260507205016 | 50 | 203 | 7.0 | 8.7 | 0.00 | 0.01 | 0.01 | 72 | 1011.2 |
| 20260507204516 | 50 | 203 | 7.0 | 10.4 | 0.00 | 0.01 | 0.01 | 72 | 1011.3 |
| 20260507204016 | 50 | 225 | 7.0 | 10.4 | 0.00 | 0.01 | 0.01 | 72 | 1011.4 |
| 20260507203516 | 50 | 225 | 6.1 | 8.7 | 0.00 | 0.01 | 0.01 | 71 | 1011.3 |
| 20260507203036 | 50 | 203 | 6.1 | 8.7 | 0.00 | 0.01 | 0.01 | 71 | 1011.2 |
| 20260507202536 | 50 | 203 | 6.1 | 9.6 | 0.00 | 0.01 | 0.01 | 72 | 1011.2 |
| 20260507202016 | 50 | 225 | 7.8 | 9.6 | 0.00 | 0.01 | 0.01 | 72 | 1011.1 |
| 20260507201516 | 50 | 225 | 7.8 | 10.4 | 0.00 | 0.01 | 0.01 | 72 | 1011.1 |
| 20260507201016 | 50 | 225 | 7.8 | 10.4 | 0.00 | 0.01 | 0.01 | 72 | 1011.1 |
| 20260507200516 | 50 | 225 | 7.8 | 8.7 | 0.00 | 0.01 | 0.01 | 72 | 1011.0 |
| 20260507200036 | 50 | 225 | 8.7 | 10.4 | 0.00 | 0.01 | 0.01 | 72 | 1010.9 |
| 20260507195516 | 51 | 225 | 8.7 | 10.4 | 0.00 | 0.01 | 0.01 | 70 | 1011.0 |
| 20260507195056 | 51 | 225 | 7.8 | 9.6 | 0.00 | 0.01 | 0.01 | 71 | 1011.0 |
| 20260507194516 | 51 | 248 | 7.0 | 8.7 | 0.00 | 0.01 | 0.01 | 71 | 1011.0 |
| 20260507194016 | 51 | 248 | 6.1 | 7.0 | 0.00 | 0.01 | 0.01 | 72 | 1010.9 |
| 20260507193516 | 51 | 248 | 6.1 | 9.6 | 0.00 | 0.01 | 0.01 | 72 | 1010.8 |
| 20260507193016 | 51 | 248 | 7.0 | 8.7 | 0.00 | 0.01 | 0.01 | 70 | 1010.9 |
| 20260507192516 | 51 | 248 | 7.8 | 9.6 | 0.00 | 0.01 | 0.01 | 70 | 1010.8 |
| 20260507192016 | 51 | 248 | 8.7 | 11.3 | 0.00 | 0.01 | 0.01 | 69 | 1010.7 |
| 20260507191516 | 51 | 248 | 7.8 | 10.4 | 0.00 | 0.01 | 0.01 | 69 | 1010.7 |
| 20260507191016 | 52 | 248 | 8.7 | 10.4 | 0.00 | 0.01 | 0.01 | 68 | 1010.7 |
| 20260507190516 | 52 | 248 | 11.3 | 13.9 | 0.00 | 0.01 | 0.01 | 68 | 1010.7 |
| 20260507190016 | 52 | 248 | 9.6 | 11.3 | 0.00 | 0.01 | 0.01 | 70 | 1010.7 |
| 20260507185516 | 52 | 248 | 9.6 | 13.9 | 0.00 | 0.01 | 0.01 | 70 | 1010.7 |
| 20260507185016 | 52 | 248 | 10.4 | 13.9 | 0.00 | 0.01 | 0.01 | 70 | 1010.7 |
| 20260507184516 | 52 | 248 | 9.6 | 12.2 | 0.00 | 0.01 | 0.01 | 71 | 1010.7 |
| 20260507184016 | 52 | 248 | 11.3 | 14.8 | 0.00 | 0.01 | 0.01 | 70 | 1010.7 |
| 20260507183516 | 52 | 225 | 10.4 | 13.9 | 0.00 | 0.01 | 0.01 | 70 | 1010.7 |
| 20260507183016 | 52 | 225 | 10.4 | 13.0 | 0.00 | 0.01 | 0.01 | 70 | 1010.7 |
| 20260507182516 | 53 | 225 | 9.6 | 13.0 | 0.00 | 0.01 | 0.01 | 70 | 1010.7 |
| 20260507182016 | 53 | 248 | 10.4 | 13.9 | 0.00 | 0.01 | 0.01 | 71 | 1010.7 |
| 20260507181516 | 53 | 248 | 10.4 | 15.6 | 0.00 | 0.01 | 0.01 | 72 | 1010.5 |
| 20260507181016 | 53 | 225 | 9.6 | 11.3 | 0.00 | 0.01 | 0.01 | 71 | 1010.7 |
| 20260507180516 | 53 | 225 | 10.4 | 13.0 | 0.00 | 0.01 | 0.01 | 72 | 1010.5 |
| 20260507180016 | 53 | 248 | 12.2 | 15.6 | 0.00 | 0.01 | 0.01 | 72 | 1010.5 |
| 20260507175516 | 53 | 225 | 10.4 | 15.6 | 0.00 | 0.01 | 0.01 | 72 | 1010.5 |
| 20260507175016 | 53 | 248 | 10.4 | 16.5 | 0.00 | 0.01 | 0.01 | 72 | 1010.5 |
| 20260507174516 | 53 | 225 | 12.2 | 16.5 | 0.00 | 0.01 | 0.01 | 72 | 1010.5 |
| 20260507174016 | 53 | 225 | 12.2 | 15.6 | 0.00 | 0.01 | 0.01 | 72 | 1010.5 |
| 20260507173536 | 53 | 225 | 12.2 | 14.8 | 0.00 | 0.01 | 0.01 | 72 | 1010.4 |
| 20260507173016 | 53 | 225 | 9.6 | 12.2 | 0.00 | 0.01 | 0.01 | 73 | 1010.4 |
| 20260507172516 | 53 | 225 | 10.4 | 13.9 | 0.00 | 0.01 | 0.01 | 73 | 1010.5 |
| 20260507172016 | 53 | 225 | 12.2 | 16.5 | 0.00 | 0.01 | 0.01 | 72 | 1010.5 |
| 20260507171516 | 53 | 225 | 13.0 | 17.4 | 0.00 | 0.01 | 0.01 | 72 | 1010.3 |
| 20260507171016 | 54 | 225 | 12.2 | 15.6 | 0.00 | 0.01 | 0.01 | 72 | 1010.4 |
| 20260507170516 | 54 | 225 | 11.3 | 13.9 | 0.00 | 0.01 | 0.01 | 72 | 1010.4 |
| 20260507170016 | 54 | 225 | 11.3 | 18.2 | 0.00 | 0.01 | 0.01 | 72 | 1010.5 |
| 20260507165516 | 54 | 225 | 12.2 | 15.6 | 0.00 | 0.01 | 0.01 | 74 | 1010.4 |
| 20260507165016 | 53 | 225 | 11.3 | 16.5 | 0.00 | 0.01 | 0.01 | 73 | 1010.5 |
| 20260507164516 | 53 | 225 | 10.4 | 13.9 | 0.00 | 0.01 | 0.01 | 73 | 1010.5 |
| 20260507164016 | 52 | 225 | 9.6 | 13.9 | 0.00 | 0.01 | 0.01 | 73 | 1010.5 |
| 20260507163516 | 52 | 225 | 10.4 | 13.9 | 0.00 | 0.01 | 0.01 | 75 | 1010.5 |
| 20260507163016 | 52 | 225 | 10.4 | 13.9 | 0.00 | 0.01 | 0.01 | 77 | 1010.6 |
| 20260507162516 | 52 | 225 | 7.8 | 15.6 | 0.00 | 0.01 | 0.01 | 77 | 1010.6 |
| 20260507162016 | 52 | 225 | 7.8 | 11.3 | 0.00 | 0.01 | 0.01 | 79 | 1010.7 |
| 20260507161516 | 52 | 225 | 7.0 | 10.4 | 0.00 | 0.01 | 0.01 | 79 | 1010.7 |
| 20260507161035 | 51 | 225 | 6.1 | 8.7 | 0.00 | 0.01 | 0.01 | 81 | 1010.9 |
| 20260507160515 | 51 | 225 | 5.2 | 9.6 | 0.00 | 0.01 | 0.01 | 81 | 1010.9 |
| 20260507160016 | 51 | 225 | 7.8 | 13.0 | 0.00 | 0.01 | 0.01 | 80 | 1010.9 |
| 20260507155516 | 51 | 225 | 7.0 | 9.6 | 0.00 | 0.01 | 0.01 | 81 | 1010.9 |
| 20260507155015 | 50 | 225 | 7.8 | 10.4 | 0.00 | 0.01 | 0.01 | 80 | 1010.9 |
| 20260507154516 | 50 | 225 | 7.8 | 11.3 | 0.00 | 0.01 | 0.01 | 81 | 1010.9 |
| 20260507154015 | 50 | 203 | 2.6 | 5.2 | 0.00 | 0.01 | 0.01 | 83 | 1011.0 |
| 20260507153516 | 50 | 158 | 2.6 | 3.5 | 0.00 | 0.01 | 0.01 | 83 | 1011.1 |
| 20260507153036 | 50 | 203 | 3.5 | 4.3 | 0.00 | 0.01 | 0.01 | 83 | 1011.0 |
| 20260507152516 | 50 | 203 | 4.3 | 7.8 | 0.00 | 0.01 | 0.01 | 83 | 1011.1 |
| 20260507152016 | 50 | 203 | 3.5 | 5.2 | 0.00 | 0.01 | 0.01 | 83 | 1011.1 |
| 20260507151536 | 50 | 203 | 4.3 | 7.8 | 0.00 | 0.01 | 0.01 | 83 | 1011.1 |
| 20260507151015 | 50 | 203 | 4.3 | 8.7 | 0.00 | 0.01 | 0.01 | 84 | 1011.2 |
| 20260507150515 | 50 | 225 | 6.1 | 8.7 | 0.00 | 0.01 | 0.01 | 83 | 1011.2 |
| 20260507150056 | 50 | 225 | 7.0 | 9.6 | 0.00 | 0.01 | 0.01 | 84 | 1011.2 |
| 20260507145515 | 50 | 225 | 7.8 | 11.3 | 0.00 | 0.01 | 0.01 | 84 | 1011.3 |
| 20260507145015 | 50 | 248 | 6.1 | 7.8 | 0.00 | 0.01 | 0.01 | 86 | 1011.3 |
| 20260507144515 | 50 | 248 | 7.0 | 9.6 | 0.00 | 0.01 | 0.01 | 85 | 1011.3 |
| 20260507144036 | 50 | 225 | 7.8 | 9.6 | 0.00 | 0.01 | 0.01 | 86 | 1011.4 |
| 20260507143516 | 49 | 225 | 8.7 | 11.3 | 0.01 | 0.01 | 0.01 | 85 | 1011.4 |
| 20260507143015 | 49 | 225 | 8.7 | 12.2 | 0.01 | 0.01 | 0.01 | 85 | 1011.4 |
| 20260507142515 | 49 | 225 | 8.7 | 12.2 | 0.01 | 0.01 | 0.01 | 85 | 1011.5 |
| 20260507142016 | 49 | 225 | 8.7 | 13.9 | 0.01 | 0.01 | 0.01 | 85 | 1011.5 |
| 20260507141516 | 49 | 248 | 8.7 | 11.3 | 0.01 | 0.01 | 0.01 | 85 | 1011.4 |
| 20260507141035 | 49 | 248 | 9.6 | 12.2 | 0.01 | 0.01 | 0.01 | 85 | 1011.5 |
| 20260507140516 | 48 | 248 | 10.4 | 13.0 | 0.01 | 0.01 | 0.01 | 86 | 1011.5 |
| 20260507140015 | 48 | 248 | 9.6 | 11.3 | 0.01 | 0.01 | 0.01 | 87 | 1011.5 |
| 20260507135515 | 48 | 248 | 10.4 | 15.6 | 0.01 | 0.01 | 0.01 | 86 | 1011.6 |
| 20260507135015 | 48 | 248 | 14.8 | 19.1 | 0.01 | 0.01 | 0.01 | 84 | 1011.7 |
| 20260507134515 | 49 | 248 | 17.4 | 24.3 | 0.01 | 0.01 | 0.01 | 84 | 1011.6 |
| 20260507134015 | 51 | 225 | 12.2 | 17.4 | 0.01 | 0.01 | 0.01 | 77 | 1011.6 |
| 20260507133515 | 51 | 225 | 13.0 | 20.0 | 0.00 | 0.00 | 0.00 | 75 | 1011.5 |
| 20260507133015 | 52 | 225 | 13.0 | 16.5 | 0.00 | 0.00 | 0.00 | 75 | 1011.5 |
| 20260507132535 | 52 | 225 | 12.2 | 16.5 | 0.00 | 0.00 | 0.00 | 74 | 1011.5 |
| 20260507132035 | 52 | 203 | 7.8 | 11.3 | 0.00 | 0.00 | 0.00 | 75 | 1011.5 |
| 20260507131515 | 51 | 225 | 8.7 | 14.8 | 0.00 | 0.00 | 0.00 | 75 | 1011.5 |
| 20260507131015 | 51 | 225 | 7.8 | 11.3 | 0.00 | 0.00 | 0.00 | 76 | 1011.5 |
| 20260507130515 | 51 | 225 | 9.6 | 13.0 | 0.00 | 0.00 | 0.00 | 76 | 1011.5 |
| 20260507130035 | 51 | 203 | 10.4 | 13.9 | 0.00 | 0.00 | 0.00 | 76 | 1011.6 |
| 20260507125515 | 51 | 225 | 10.4 | 16.5 | 0.00 | 0.00 | 0.00 | 76 | 1011.6 |
| 20260507125015 | 51 | 225 | 10.4 | 16.5 | 0.00 | 0.00 | 0.00 | 75 | 1011.7 |
| 20260507124515 | 51 | 225 | 10.4 | 13.0 | 0.00 | 0.00 | 0.00 | 75 | 1011.7 |
| 20260507124016 | 51 | 225 | 11.3 | 14.8 | 0.00 | 0.00 | 0.00 | 77 | 1011.7 |
| 20260507123515 | 51 | 225 | 11.3 | 15.6 | 0.00 | 0.00 | 0.00 | 77 | 1011.7 |
| 20260507123015 | 50 | 225 | 10.4 | 14.8 | 0.00 | 0.00 | 0.00 | 77 | 1011.8 |
| 20260507122515 | 50 | 225 | 9.6 | 13.0 | 0.00 | 0.00 | 0.00 | 78 | 1011.8 |
| 20260507122015 | 50 | 225 | 7.8 | 13.0 | 0.00 | 0.00 | 0.00 | 78 | 1011.9 |
| 20260507121515 | 50 | 225 | 5.2 | 8.7 | 0.00 | 0.00 | 0.00 | 79 | 1011.9 |
| 20260507121015 | 50 | 203 | 7.0 | 9.6 | 0.00 | 0.00 | 0.00 | 78 | 1011.9 |
| 20260507120535 | 50 | 203 | 7.0 | 12.2 | 0.00 | 0.00 | 0.00 | 79 | 1012.0 |
| 20260507120015 | 49 | 203 | 6.1 | 8.7 | 0.00 | 0.00 | 0.00 | 79 | 1012.0 |
| 20260507115515 | 49 | 203 | 7.8 | 12.2 | 0.00 | 0.00 | 0.00 | 78 | 1012.1 |
| 20260507115015 | 49 | 203 | 7.8 | 11.3 | 0.00 | 0.00 | 0.00 | 78 | 1012.1 |
| 20260507114515 | 49 | 203 | 7.8 | 10.4 | 0.00 | 0.00 | 0.00 | 78 | 1012.1 |
| 20260507114015 | 49 | 203 | 8.7 | 13.0 | 0.00 | 0.00 | 0.00 | 78 | 1012.2 |
| 20260507113535 | 49 | 203 | 7.0 | 11.3 | 0.00 | 0.00 | 0.00 | 78 | 1012.2 |
| 20260507113035 | 49 | 203 | 7.0 | 9.6 | 0.00 | 0.00 | 0.00 | 79 | 1012.2 |
| 20260507112515 | 49 | 203 | 8.7 | 13.9 | 0.00 | 0.00 | 0.00 | 78 | 1012.1 |
| 20260507112015 | 49 | 203 | 7.8 | 11.3 | 0.00 | 0.00 | 0.00 | 79 | 1012.2 |
| 20260507111515 | 49 | 203 | 6.1 | 9.6 | 0.00 | 0.00 | 0.00 | 79 | 1012.1 |
| 20260507111015 | 48 | 203 | 4.3 | 7.0 | 0.00 | 0.00 | 0.00 | 81 | 1012.1 |
| 20260507110555 | 48 | 225 | 2.6 | 4.3 | 0.00 | 0.00 | 0.00 | 81 | 1012.0 |
| 20260507110015 | 48 | 248 | 2.6 | 4.3 | 0.00 | 0.00 | 0.00 | 82 | 1012.1 |
| 20260507105535 | 47 | 270 | 3.5 | 4.3 | 0.00 | 0.00 | 0.00 | 81 | 1012.1 |
| 20260507105015 | 48 | 270 | 2.6 | 4.3 | 0.00 | 0.00 | 0.00 | 82 | 1012.2 |
| 20260507104535 | 48 | 248 | 4.3 | 6.1 | 0.00 | 0.00 | 0.00 | 79 | 1012.3 |
| 20260507104016 | 48 | 203 | 3.5 | 5.2 | 0.00 | 0.00 | 0.00 | 78 | 1012.3 |
| 20260507103515 | 48 | 203 | 3.5 | 8.7 | 0.00 | 0.00 | 0.00 | 77 | 1012.3 |
| 20260507103035 | 49 | 203 | 4.3 | 10.4 | 0.00 | 0.00 | 0.00 | 77 | 1012.3 |
| 20260507102515 | 48 | 203 | 5.2 | 10.4 | 0.00 | 0.00 | 0.00 | 77 | 1012.3 |
| 20260507102037 | 49 | 225 | 5.2 | 7.8 | 0.00 | 0.00 | 0.00 | 77 | 1012.3 |
| 20260507101537 | 49 | 225 | 5.2 | 7.0 | 0.00 | 0.00 | 0.00 | 76 | 1012.3 |
| 20260507101017 | 49 | 225 | 7.0 | 9.6 | 0.00 | 0.00 | 0.00 | 76 | 1012.3 |
| 20260507100517 | 49 | 203 | 5.2 | 7.8 | 0.00 | 0.00 | 0.00 | 76 | 1012.3 |
| 20260507100017 | 49 | 203 | 6.1 | 8.7 | 0.00 | 0.00 | 0.00 | 75 | 1012.2 |
| 20260507095517 | 49 | 203 | 6.1 | 8.7 | 0.00 | 0.00 | 0.00 | 77 | 1012.3 |
| 20260507095017 | 48 | 203 | 5.2 | 7.8 | 0.00 | 0.00 | 0.00 | 77 | 1012.3 |
| 20260507094537 | 48 | 203 | 7.0 | 8.7 | 0.00 | 0.00 | 0.00 | 77 | 1012.2 |
| 20260507094015 | 48 | 135 | 6.1 | 9.6 | 0.00 | 0.00 | 0.00 | 77 | 1012.1 |
| 20260507093517 | 48 | 135 | 6.1 | 9.6 | 0.00 | 0.00 | 0.00 | 77 | 1012.2 |
| 20260507093017 | 48 | 158 | 5.2 | 7.8 | 0.00 | 0.00 | 0.00 | 78 | 1012.3 |
| 20260507092517 | 48 | 158 | 4.3 | 7.0 | 0.00 | 0.00 | 0.00 | 77 | 1012.3 |
| 20260507092017 | 47 | 135 | 4.3 | 7.8 | 0.00 | 0.00 | 0.00 | 77 | 1012.3 |
| 20260507091517 | 47 | 203 | 3.5 | 6.1 | 0.00 | 0.00 | 0.00 | 77 | 1012.3 |
| 20260507091017 | 47 | 158 | 4.3 | 6.1 | 0.00 | 0.00 | 0.00 | 78 | 1012.3 |
| 20260507090517 | 47 | 135 | 5.2 | 7.8 | 0.00 | 0.00 | 0.00 | 78 | 1012.4 |
| 20260507090017 | 47 | 135 | 3.5 | 6.1 | 0.00 | 0.00 | 0.00 | 78 | 1012.3 |
| 20260507085517 | 47 | 158 | 1.7 | 3.5 | 0.00 | 0.00 | 0.00 | 78 | 1012.4 |
| 20260507085017 | 46 | 203 | 2.6 | 4.3 | 0.00 | 0.00 | 0.00 | 79 | 1012.4 |
| 20260507084517 | 46 | 90 | 1.7 | 4.3 | 0.00 | 0.00 | 0.00 | 78 | 1012.4 |
| 20260507084017 | 46 | 135 | 1.7 | 3.5 | 0.00 | 0.00 | 0.00 | 78 | 1012.4 |
| 20260507083517 | 46 | 135 | 0.9 | 2.6 | 0.00 | 0.00 | 0.00 | 78 | 1012.4 |
| 20260507083037 | 46 | 90 | 1.7 | 4.3 | 0.00 | 0.00 | 0.00 | 78 | 1012.4 |
| 20260507082537 | 46 | 90 | 2.6 | 6.1 | 0.00 | 0.00 | 0.00 | 77 | 1012.5 |
| 20260507082017 | 46 | 68 | 1.7 | 2.6 | 0.00 | 0.00 | 0.00 | 77 | 1012.5 |
| 20260507081517 | 46 | 68 | 0.9 | 3.5 | 0.00 | 0.00 | 0.00 | 78 | 1012.5 |
| 20260507081017 | 45 | 68 | 1.7 | 4.3 | 0.00 | 0.00 | 0.00 | 78 | 1012.5 |
| 20260507080517 | 45 | 90 | 1.7 | 3.5 | 0.00 | 0.00 | 0.00 | 80 | 1012.5 |
| 20260507080037 | 45 | 45 | 1.7 | 4.3 | 0.00 | 0.00 | 0.00 | 79 | 1012.5 |
| 20260507075517 | 45 | 68 | 2.6 | 4.3 | 0.00 | 0.00 | 0.00 | 80 | 1012.5 |
| 20260507075017 | 45 | 68 | 3.5 | 5.2 | 0.00 | 0.00 | 0.00 | 79 | 1012.6 |
| 20260507074517 | 45 | 45 | 1.7 | 3.5 | 0.00 | 0.00 | 0.00 | 79 | 1012.6 |
| 20260507074017 | 44 | 90 | 1.7 | 4.3 | 0.00 | 0.00 | 0.00 | 80 | 1012.7 |
| 20260507073516 | 44 | 68 | 1.7 | 4.3 | 0.00 | 0.00 | 0.00 | 80 | 1012.7 |
| 20260507073017 | 44 | 68 | 2.6 | 4.3 | 0.00 | 0.00 | 0.00 | 80 | 1012.7 |
| 20260507072517 | 44 | 68 | 1.7 | 4.3 | 0.00 | 0.00 | 0.00 | 81 | 1012.7 |
| 20260507072017 | 44 | 45 | 2.6 | 3.5 | 0.00 | 0.00 | 0.00 | 80 | 1012.7 |
| 20260507071517 | 44 | 68 | 2.6 | 5.2 | 0.00 | 0.00 | 0.00 | 80 | 1012.6 |
| 20260507071017 | 44 | 68 | 2.6 | 5.2 | 0.00 | 0.00 | 0.00 | 81 | 1012.7 |
| 20260507070537 | 43 | 68 | 3.5 | 5.2 | 0.00 | 0.00 | 0.00 | 81 | 1012.6 |
| 20260507070037 | 43 | 45 | 4.3 | 6.1 | 0.00 | 0.00 | 0.00 | 81 | 1012.6 |
| 20260507065517 | 43 | 45 | 4.3 | 6.1 | 0.00 | 0.00 | 0.00 | 82 | 1012.6 |
| 20260507065017 | 43 | 45 | 4.3 | 5.2 | 0.00 | 0.00 | 0.00 | 82 | 1012.7 |
| 20260507064516 | 42 | 45 | 5.2 | 6.1 | 0.00 | 0.00 | 0.00 | 83 | 1012.7 |
| 20260507064016 | 42 | 45 | 4.3 | 6.1 | 0.00 | 0.00 | 0.00 | 83 | 1012.8 |
| 20260507063516 | 42 | 45 | 4.3 | 6.1 | 0.00 | 0.00 | 0.00 | 83 | 1012.8 |
| 20260507063036 | 42 | 45 | 4.3 | 6.1 | 0.00 | 0.00 | 0.00 | 83 | 1012.8 |
| 20260507062517 | 42 | 45 | 2.6 | 4.3 | 0.00 | 0.00 | 0.00 | 84 | 1012.8 |
| 20260507062017 | 42 | 45 | 3.5 | 4.3 | 0.00 | 0.00 | 0.00 | 84 | 1012.8 |
| 20260507061516 | 42 | 45 | 3.5 | 4.3 | 0.00 | 0.00 | 0.00 | 84 | 1012.8 |
| 20260507061016 | 42 | 45 | 2.6 | 4.3 | 0.00 | 0.00 | 0.00 | 84 | 1012.9 |
| 20260507060516 | 41 | 45 | 2.6 | 3.5 | 0.00 | 0.00 | 0.00 | 84 | 1012.9 |
| 20260507060016 | 41 | 45 | 3.5 | 4.3 | 0.00 | 0.00 | 0.00 | 84 | 1012.8 |
| 20260507055517 | 41 | 45 | 2.6 | 3.5 | 0.00 | 0.00 | 0.00 | 84 | 1012.9 |
| 20260507055017 | 41 | 45 | 2.6 | 3.5 | 0.00 | 0.00 | 0.00 | 84 | 1012.9 |
| 20260507054536 | 41 | 45 | 2.6 | 2.6 | 0.00 | 0.00 | 0.00 | 84 | 1012.9 |
| 20260507054036 | 41 | 45 | 1.7 | 2.6 | 0.00 | 0.00 | 0.00 | 84 | 1012.9 |
| 20260507053516 | 41 | 45 | 1.7 | 3.5 | 0.00 | 0.00 | 0.00 | 84 | 1012.9 |
| 20260507053036 | 41 | 45 | 3.5 | 3.5 | 0.00 | 0.00 | 0.00 | 84 | 1012.9 |
| 20260507052557 | 41 | 45 | 3.5 | 4.3 | 0.00 | 0.00 | 0.00 | 84 | 1012.9 |
| 20260507052017 | 41 | 45 | 3.5 | 4.3 | 0.00 | 0.00 | 0.00 | 84 | 1012.9 |
| 20260507051517 | 41 | 45 | 3.5 | 5.2 | 0.00 | 0.00 | 0.00 | 83 | 1012.9 |
| 20260507051016 | 41 | 45 | 3.5 | 4.3 | 0.00 | 0.00 | 0.00 | 83 | 1013.0 |
| 20260507050516 | 41 | 45 | 3.5 | 4.3 | 0.00 | 0.00 | 0.00 | 83 | 1013.0 |
| 20260507050036 | 41 | 45 | 3.5 | 4.3 | 0.00 | 0.00 | 0.00 | 83 | 1013.1 |
| 20260507045516 | 41 | 45 | 3.5 | 4.3 | 0.00 | 0.00 | 0.00 | 83 | 1013.0 |
| 20260507045016 | 41 | 45 | 3.5 | 5.2 | 0.00 | 0.00 | 0.00 | 82 | 1013.1 |
| 20260507044516 | 41 | 45 | 4.3 | 5.2 | 0.00 | 0.00 | 0.00 | 82 | 1013.0 |
| 20260507044017 | 41 | 45 | 3.5 | 4.3 | 0.00 | 0.00 | 0.00 | 82 | 1013.0 |
| 20260507043536 | 41 | 45 | 3.5 | 4.3 | 0.00 | 0.00 | 0.00 | 82 | 1012.9 |
| 20260507043016 | 41 | 45 | 3.5 | 4.3 | 0.00 | 0.00 | 0.00 | 82 | 1013.0 |
| 20260507042536 | 41 | 23 | 3.5 | 4.3 | 0.00 | 0.00 | 0.00 | 82 | 1012.9 |
| 20260507042056 | 41 | 45 | 2.6 | 3.5 | 0.00 | 0.00 | 0.00 | 82 | 1013.0 |
| 20260507041516 | 41 | 45 | 2.6 | 3.5 | 0.00 | 0.00 | 0.00 | 82 | 1013.0 |
| 20260507041016 | 41 | 45 | 2.6 | 3.5 | 0.00 | 0.00 | 0.00 | 82 | 1013.0 |
| 20260507040516 | 41 | 45 | 1.7 | 2.6 | 0.00 | 0.00 | 0.00 | 82 | 1013.0 |
| 20260507040016 | 41 | 45 | 0.9 | 1.7 | 0.00 | 0.00 | 0.00 | 82 | 1013.0 |
| 20260507035516 | 41 | 45 | 1.7 | 2.6 | 0.00 | 0.00 | 0.00 | 82 | 1013.0 |
| 20260507035016 | 41 | 45 | 2.6 | 2.6 | 0.00 | 0.00 | 0.00 | 82 | 1013.0 |
| 20260507034516 | 41 | 45 | 2.6 | 2.6 | 0.00 | 0.00 | 0.00 | 82 | 1013.0 |
| 20260507034016 | 41 | 45 | 2.6 | 3.5 | 0.00 | 0.00 | 0.00 | 83 | 1013.1 |
| 20260507033516 | 41 | 45 | 2.6 | 4.3 | 0.00 | 0.00 | 0.00 | 83 | 1013.2 |
| 20260507033016 | 41 | 45 | 3.5 | 4.3 | 0.00 | 0.00 | 0.00 | 83 | 1013.2 |
| 20260507032516 | 41 | 45 | 2.6 | 3.5 | 0.00 | 0.00 | 0.00 | 83 | 1013.2 |
| 20260507032016 | 41 | 45 | 3.5 | 4.3 | 0.00 | 0.00 | 0.00 | 83 | 1013.2 |
| 20260507031516 | 41 | 23 | 3.5 | 4.3 | 0.00 | 0.00 | 0.00 | 83 | 1013.2 |
| 20260507031016 | 41 | 45 | 3.5 | 5.2 | 0.00 | 0.00 | 0.00 | 82 | 1013.2 |
| 20260507030516 | 41 | 23 | 3.5 | 4.3 | 0.00 | 0.00 | 0.00 | 83 | 1013.3 |
| 20260507030016 | 41 | 45 | 2.6 | 3.5 | 0.00 | 0.00 | 0.00 | 83 | 1013.2 |
| 20260507025536 | 41 | 45 | 2.6 | 3.5 | 0.00 | 0.00 | 0.00 | 83 | 1013.2 |
| 20260507025016 | 41 | 23 | 2.6 | 2.6 | 0.00 | 0.00 | 0.00 | 83 | 1013.2 |
| 20260507024516 | 41 | 45 | 2.6 | 2.6 | 0.00 | 0.00 | 0.00 | 83 | 1013.2 |
| 20260507024016 | 41 | 45 | 1.7 | 2.6 | 0.00 | 0.00 | 0.00 | 83 | 1013.2 |
| 20260507023536 | 41 | 0.0 | 0.9 | 0.00 | 0.00 | 0.00 | 82 | 1013.3 | |
| 20260507023016 | 41 | 45 | 0.9 | 1.7 | 0.00 | 0.00 | 0.00 | 81 | 1013.3 |
| 20260507022516 | 41 | 45 | 0.9 | 2.6 | 0.00 | 0.00 | 0.00 | 81 | 1013.3 |
| 20260507022016 | 42 | 45 | 0.9 | 1.7 | 0.00 | 0.00 | 0.00 | 81 | 1013.3 |
| 20260507021556 | 42 | 68 | 0.9 | 2.6 | 0.00 | 0.00 | 0.00 | 81 | 1013.3 |
| 20260507021016 | 41 | 45 | 1.7 | 2.6 | 0.00 | 0.00 | 0.00 | 82 | 1013.3 |
| 20260507020516 | 41 | 45 | 1.7 | 3.5 | 0.00 | 0.00 | 0.00 | 82 | 1013.3 |
| 20260507020016 | 41 | 0.0 | 2.6 | 0.00 | 0.00 | 0.00 | 83 | 1013.3 | |
| 20260507015516 | 41 | 45 | 1.7 | 2.6 | 0.00 | 0.00 | 0.00 | 83 | 1013.2 |
| 20260507015016 | 41 | 23 | 0.9 | 2.6 | 0.00 | 0.00 | 0.00 | 83 | 1013.2 |
| 20260507014516 | 41 | 45 | 2.6 | 2.6 | 0.00 | 0.00 | 0.00 | 83 | 1013.2 |
| 20260507014016 | 41 | 45 | 2.6 | 2.6 | 0.00 | 0.00 | 0.00 | 82 | 1013.3 |